Location: Bandys
(35.4750°N, 81.0830°W)
Time: 07:20:42
(UTC-05:00)

Daily predictions for brighter satellites

Satellite Brightness Start Highest point End
(mag) Time Altitude Azimuth Time Altitude Azimuth Time Altitude Azimuth
SL-16 R/B 2.7 18:31:26 10° NNW 18:37:05 67° WSW 18:42:41 10° S
SKYMED 2 4.2 18:40:52 10° N 18:45:11 63° WNW 18:49:27 10° SSW
NOAA 12 4.2 18:42:07 10° SSE 18:47:17 55° ENE 18:52:29 10° N
FENGYUN 3A 4.5 18:43:52 10° SE 18:48:27 29° ENE 18:53:04 10° N
Abrixas rocket 2.2 18:45:45 10° SW 18:49:06 89° S 18:52:28 10° NE
Cosmos 1741 Rocket 4.2 18:46:10 10° S 18:51:10 49° ESE 18:56:12 10° NNE
FREGAT/IRIS 3.3 18:49:03 10° SE 18:51:52 33° ENE 18:54:41 10° N
Cosmos 2322 Rocket 3.4 18:46:36 10° NW 18:51:57 47° WSW 18:57:17 10° S
Meteor 1-28 Rocket 3.8 18:48:19 10° N 18:52:05 61° WNW 18:55:50 10° SSW
Tiangong 2 2.7 18:51:45 10° W 18:54:33 31° SW 18:57:19 10° SSE
Genesis I 4.1 18:52:57 10° N 18:56:26 29° NE 18:59:53 10° ESE
GPS 2-04 Rocket1 2.9 18:54:01 10° WSW 18:58:14 70° SSE 19:01:59 13° E
Okean 1-7 Rocket 4.3 18:54:35 10° NNE 18:58:36 31° ENE 19:02:34 10° SE
Cosmos 1536 Rocket 3.8 18:54:10 10° N 18:58:38 80° W 19:03:07 10° S
GEOS 3 Rocket 4.2 18:54:03 10° NE 18:58:55 38° ESE 19:03:48 10° S
Cosmos 1633 2.9 18:59:07 10° SSW 19:02:47 72° W 19:06:28 10° N
Cosmos 1140 Rocket 3.8 18:59:53 10° SSW 19:04:58 69° WNW 19:10:08 10° NNE
METEOR-M 4.1 19:00:11 10° SSE 19:05:31 82° ENE 19:10:53 10° N
Cosmos 614 Rocket 4.0 19:03:05 10° SSW 19:08:10 86° WNW 19:13:16 10° NNE
Hubble Space Telescope 2.4 19:07:08 10° SW 19:10:21 22° SSE 19:12:51 13° ESE
Cosmos 2322 3.7 19:06:11 10° NNW 19:11:56 80° ENE 19:17:37 10° SSE
Cosmos 1570 Rocket 4.2 19:06:57 10° N 19:12:01 48° ENE 19:17:04 10° SE
SJ-6B 2.7 19:08:37 10° SSE 19:12:37 72° ENE 19:16:32 10° N
ATLAS CENTAUR R/B 2.6 19:07:57 10° SSW 19:13:08 31° SE 19:14:33 21° E
Meteor 1-19 Rocket 4.2 19:10:28 10° N 19:16:13 83° E 19:22:00 10° S
ATLAS 2A CENTAUR R/B 3.3 19:16:01 10° SW 19:18:12 19° S 19:22:35 10° SE
Cosmos 1300 Rocket 4.3 19:16:39 10° SSW 19:20:58 56° W 19:25:20 10° N
Helios 1A 4.1 19:23:44 22° ENE 19:23:50 22° ENE 19:27:04 10° NNE
Cosmos 405 Rocket 4.2 19:21:09 10° NNE 19:23:33 20° ENE 19:23:33 20° ENE
CZ-2D R/B 4.1 19:24:00 25° E 19:24:44 27° ENE 19:28:00 10° NNE
USA 229 DEB 4.2 19:18:13 10° NNW 19:24:58 43° NE 19:29:53 19° ESE
USA 229 4.2 19:18:19 10° NNW 19:25:03 42° NE 19:29:56 19° ESE
H-2A R/B 3.1 19:22:45 11° SE 19:25:59 38° ENE 19:29:29 10° N
Spot 2 Rocket 3.7 19:21:11 10° SE 19:26:01 49° ENE 19:30:53 10° N
Cosmos 2297 Rocket 3.6 19:23:38 10° SE 19:26:20 18° ESE 19:26:20 18° ESE
Cosmos 2237 Rocket 3.6 19:24:00 10° NNE 19:27:52 18° NE 19:28:14 18° ENE
Okean 2 4.1 19:24:11 10° NNE 19:27:56 31° ENE 19:29:23 25° ESE
Cosmos 2333 4.4 19:23:15 10° N 19:28:48 48° ENE 19:33:43 13° SE
Cosmos 2237 4.1 19:23:51 10° NNW 19:29:35 74° ENE 19:35:16 10° SSE
COSMOS 2428 2.8 19:23:59 10° NNW 19:29:35 57° ENE 19:35:09 10° SE
DELTA 2 R/B (1) 4.0 19:24:13 10° WNW 19:29:45 61° SSW 19:33:54 18° SE
Helios 1B rocket 3.1 19:27:33 10° NE 19:31:17 32° E 19:34:59 10° SSE
Cosmos 1238 Rocket 3.9 19:31:27 10° NNW 19:34:10 34° W 19:37:00 10° SSW
Meteor 2-4 Rocket 3.5 19:28:44 10° N 19:34:15 84° E 19:39:37 10° S
Resurs 01 Rocket 1.5 19:30:27 10° SSE 19:34:47 62° ENE 19:39:08 10° N
SL-19 R/B 4.3 19:29:38 10° SSE 19:35:13 66° ENE 19:41:11 10° N
Atlas Centaur 2 3.9 19:31:00 10° SSW 19:36:12 21° SSE 19:38:25 17° SE
Meteor 1-23 Rocket 4.2 19:31:32 10° N 19:37:20 72° E 19:43:01 10° SSE
Cosmos 2360 Rocket 3.2 19:36:00 10° NNW 19:41:26 48° WSW 19:46:51 10° S
Cosmos 2208 Rocket 4.0 19:36:18 10° NNW 19:41:46 86° ENE 19:47:08 10° SSE
Cosmos 1536 3.8 19:38:07 10° SSW 19:41:59 48° W 19:45:51 10° N
Cosmos 2219 Rocket 2.6 19:36:46 10° N 19:41:59 39° ENE 19:43:37 32° E
Envisat 4.5 19:44:07 20° NE 19:44:07 20° NE 19:46:30 10° NNE
Cosmos 2327 Rocket 4.4 19:37:03 10° S 19:43:15 84° E 19:49:36 10° N
Cosmos 2219 3.8 19:38:29 10° SSW 19:44:09 61° WNW 19:49:51 10° NNE
HJ-1C 3.9 19:43:00 10° S 19:46:20 59° W 19:49:40 10° NNW
Cosmos 2227 Rocket 2.5 19:42:19 10° S 19:47:33 41° ESE 19:49:26 31° ENE
Resurs 1-3 3.4 19:43:19 10° SSE 19:47:41 73° ENE 19:52:03 10° N
SL-16 R/B 4.2 19:59:36 10° NNE 20:00:38 13° NNE 20:00:38 13° NNE
Cosmos 2074 Rocket 4.5 19:56:50 10° SSW 20:02:59 62° W 20:09:14 10° N
Spot 1 3.9 20:03:52 63° NNE 20:03:52 63° NNE 20:07:33 10° N
OTV 4 2.1 20:00:34 10° WSW 20:02:21 32° WSW 20:02:21 32° WSW
Cosmos 1892 Rocket 3.5 20:02:57 10° N 20:06:48 64° NNE 20:06:48 64° NNE
SAR-Lupe-4 4.5 20:10:00 41° NNW 20:10:00 41° NNW 20:12:26 10° NNW
Cosmos 1486 Rocket 4.4 20:03:56 10° S 20:07:58 45° SSE 20:07:58 45° SSE
ALOS 3.7 20:06:56 10° SSW 20:11:14 37° W 20:15:34 10° NNW
Cosmos 1025 Rocket 4.2 20:09:37 10° NNW 20:13:47 44° W 20:17:57 10° SSW
Cosmos 2333 Rocket 2.1 20:18:15 10° NNW 20:23:54 72° ENE 20:23:54 72° ENE
Cosmos 1980 4.0 20:21:39 10° NNW 20:26:08 50° NNE 20:26:08 50° NNE
Cosmos 1544 Rocket 4.2 20:23:54 10° SSW 20:28:07 53° W 20:32:22 10° N
Nadezhda 3 Rocket 3.8 20:24:03 10° N 20:30:14 86° E 20:31:35 58° SSE
Cosmos 2341 Rocket 3.9 20:28:25 10° S 20:34:46 86° E 20:41:12 10° N
Cosmos 2154 Rocket 4.3 20:31:17 10° SSW 20:37:34 66° W 20:43:53 10° N
GPS 2-04 Rocket1 4.3 20:33:49 10° W 20:36:30 37° W 20:36:30 37° W
NOSS 0 Rocket 3.8 20:35:56 10° NNW 20:42:05 81° WSW 20:42:06 81° WSW
Cosmos 2082 4.0 20:43:17 10° SSW 20:48:27 62° W 20:48:27 62° W
Hubble Space Telescope 3.5 20:47:28 10° WSW 20:48:14 14° SW 20:48:14 14° SW
Cosmos 2297 Rocket 3.8 21:05:41 10° SW 21:08:19 27° SW 21:08:19 27° SW
Cosmos 2237 Rocket 3.5 21:06:43 10° NNW 21:10:06 35° NW 21:10:06 35° NW
Atlas Centaur 2 4.4 21:18:59 10° SW 21:21:05 19° SW 21:21:05 19° SW
Cosmos 2219 Rocket 4.1 21:21:14 10° NW 21:25:25 24° W 21:25:25 24° W
Cosmos 2227 Rocket 4.1 21:27:08 10° WSW 21:31:29 25° WNW 21:31:29 25° WNW
CZ-3 Stage 3 4.3 21:12:12 10° WSW 21:32:49 44° SSW 21:32:49 44° SSW
